Location: Monroe
(41.3286°N, 74.1872°W)
Time: 19:54:24
(UTC+00:00)

ARIANE 6 FM1 Upper Stage - Pass Details

Date: 20 January 2026
Orbit: 522 x 609 km, 62.0° (Epoch: 6 February)

Event Time Altitude Azimuth Distance (km) Brightness Sun altitude
Rises 23:55:11 0° 197° (SSW) 2,721 6.5 -21.9°
Reaches altitude 10° 23:57:30 10° 190° (S) 1,815 5.5 -22.3°
Enters shadow 23:59:40 26° 170° (S) 1,079 4.0 -22.7°
